星链-3563 (STARLINK-3563 )

导读

STARLINK-3563是美国SpaceX星链(Starlink)星座中的一颗卫星,于2022年3月3日发射升空。作为星链互联网星座的组成部分,它承担着为全球用户提供低延迟、高速率宽带互联网服务的任务,依托低轨部署,助力实现全球覆盖的卫星互联网组网,推动星链星座的服务能力拓展。

基本信息
目录编号:
51858
目录名称:
STARLINK-3563
国际标识:
2022-022G
轨道中心:
EARTH
卫星名称:
星链-3563
卫星全名:
星链-3563 (STARLINK-3563 )
卫星状态:
在轨 (已飞行1647 天)
发射日期:
2022-03-03 UTC
国别 :
美国 (US)
星等 :
--
轨道信息
数据来源 国际轨道数据
星历时间: 2026-09-05T14:09:11+0800
7小时前
查看轨道信息
半长轴: 6840.895km
偏心率: 0.0001172
轨道倾角: 53.158°
近地点辐角 84.561°
升交点赤经 280.946°
平近点角 275.553°
近地点: 461.956km
远地点: 463.56km
周期: 93.849分钟
每日圈数: 15.343818
详细信息
固有亮度:
5
最大亮度:
2.5
卫星平台:
Starlink v1.5
覆盖范围:
全球
运营商:
太空探索技术公司
运营商所在国:
美国
制造商(研发单位):
太空探索技术公司
制造商所在国:
美国
使用方式:
暂无
卫星简介
星链(Starlink)计划是由太空探索技术公司(SpaceX)提出的一个巨型低轨卫星互联网星座项目,计划在2019年至2024年间在太空搭建由约1.2万颗卫星组成的“星链”网络,其中1584颗将部署在地球上空550千米处的近地轨道,并从2020年开始工作。该卫星仍在工作。
2D轨道图
3D轨道图
轨道高度分析图
轨道倾角分析图
轨道综合分析图
查看轨道综合分析图
交会数据列表
事件ID 空间交会对象 最接近时刻(TCA) 交会距离 交会风险概率(CRP) 交会风险指数(CRI) 操作
CDM_260906-205205-185806-951821
2026-09-06T
20:52:12+0000
0.827 km
远距离
1.392622E-5 中风险 0.58
CDM_260905-131405-185806-580521
2026-09-05T
13:14:37+0000
1.347 km
极远距离
9.601264E-6 低风险 0.55
CDM_260906-231205-185806-951821
2026-09-06T
23:12:54+0000
1.063 km
极远距离
5.9233E-6 低风险 0.5
CDM_260906-191805-185806-951821
2026-09-06T
19:18:25+0000
1.333 km
极远距离
2.791125E-6 低风险 0.44
CDM_260905-122705-185806-580521
2026-09-05T
12:27:41+0000
2.098 km
极远距离
2.534547E-6 低风险 0.43
CDM_260907-004605-185806-951821
2026-09-07T
00:46:41+0000
1.568 km
极远距离
1.705405E-6 低风险 0.4
CDM_260906-010905-185806-190122
OBJECT H (61901)
2026-09-06T
01:09:40+0000
2.608 km
极远距离
1.151698E-6 低风险 0.36
CDM_260906-222605-185806-951821
2026-09-06T
22:26:00+0000
2.944 km
极远距离
4.899293E-7 极低风险 0.29